EW6308 Weather Reports


Display with metric or nautical units.
time (UTC)temp
F
wind
direction
speed
MPH
gust
MPH
rain 1hr
in
rain 24hr
in
rain mn
in
humidity
%
barometer
mb
20260509034419 70 276 0.0 0.0 0.00 0.00 0.00 92 1012.0
20260509033916 70 254 0.0 0.0 0.00 0.00 0.00 92 1012.0
20260509033413 71 227 0.0 0.0 0.00 0.00 0.00 92 1011.8
20260509032909 71 227 0.0 0.0 0.00 0.00 0.00 91 1011.8
20260509032407 71 228 0.0 0.0 0.00 0.00 0.00 91 1011.8
20260509031905 71 229 0.0 0.0 0.00 0.00 0.00 91 1011.6
20260509031402 71 228 0.0 0.0 0.00 0.00 0.00 91 1011.6
20260509030859 71 223 0.0 0.0 0.00 0.00 0.00 90 1011.4
20260509030357 71 223 1.0 1.0 0.00 0.00 0.00 90 1011.6
20260509025854 71 236 0.0 0.0 0.00 0.00 0.00 90 1011.4
20260509025349 72 261 0.0 0.0 0.00 0.00 0.00 89 1011.3
20260509024845 72 262 0.0 0.0 0.00 0.00 0.00 88 1011.4
20260509024341 72 263 0.0 1.0 0.00 0.00 0.00 88 1011.3
20260509023838 73 246 0.0 0.0 0.00 0.00 0.00 87 1011.1
20260509023336 73 178 0.0 1.0 0.00 0.00 0.00 87 1011.2
20260509022832 73 205 1.0 2.0 0.00 0.00 0.00 87 1010.9
20260509022330 73 194 2.0 2.0 0.00 0.00 0.00 86 1010.7
20260509021826 73 205 1.0 2.0 0.00 0.00 0.00 86 1011.0
20260509021323 73 197 2.0 3.0 0.00 0.00 0.00 86 1011.0
20260509020821 73 185 1.0 2.0 0.00 0.00 0.00 86 1010.8
20260509020319 73 184 1.0 2.0 0.00 0.00 0.00 85 1010.7
20260509015816 73 176 1.0 2.0 0.00 0.00 0.00 85 1010.6
20260509015314 73 199 1.0 2.0 0.00 0.00 0.00 85 1010.5
20260509014811 74 205 1.0 1.0 0.00 0.00 0.00 85 1010.8
20260509014308 74 203 0.0 1.0 0.00 0.00 0.00 85 1010.7
20260509013804 74 204 0.0 0.0 0.00 0.00 0.00 85 1010.8
20260509013300 74 204 0.0 1.0 0.00 0.00 0.00 84 1010.8
20260509012756 74 206 0.0 0.0 0.00 0.00 0.00 84 1010.9
20260509012253 74 206 0.0 0.0 0.00 0.00 0.00 84 1010.9
20260509011751 74 218 0.0 0.0 0.00 0.00 0.00 84 1010.9
20260509011248 74 221 0.0 1.0 0.00 0.00 0.00 84 1010.9
20260509010746 74 227 0.0 1.0 0.00 0.00 0.00 83 1010.8
20260509010243 74 223 0.0 1.0 0.00 0.00 0.00 83 1010.9
20260509005741 74 209 2.0 3.0 0.00 0.00 0.00 83 1010.9
20260509005238 75 199 3.0 4.0 0.00 0.00 0.00 83 1011.0
20260509004737 75 192 2.0 2.0 0.00 0.00 0.00 82 1011.0
20260509004235 75 219 1.0 2.0 0.00 0.00 0.00 82 1010.8
20260509003733 75 220 0.0 3.0 0.00 0.00 0.00 82 1011.1
20260509003230 75 209 2.0 3.0 0.00 0.00 0.00 82 1011.0
20260509002727 75 182 2.0 3.0 0.00 0.00 0.00 82 1010.8
20260509002225 75 206 1.0 3.0 0.00 0.00 0.00 81 1011.0
20260509001722 75 167 1.0 4.0 0.00 0.00 0.00 81 1010.8
20260509001218 75 170 2.0 4.0 0.00 0.00 0.00 81 1010.8
20260509000716 75 200 2.0 6.0 0.00 0.00 0.00 81 1010.6
20260509000213 75 201 2.0 6.0 0.00 0.00 0.00 80 1010.9
20260508235710 75 209 2.0 3.0 0.00 0.00 0.00 80 1011.0
20260508235206 75 229 2.0 7.0 0.00 0.00 0.00 80 1010.9
20260508234704 75 144 4.0 7.0 0.00 0.00 0.00 80 1011.0
20260508234200 75 227 2.0 4.0 0.00 0.00 0.00 80 1011.0
20260508233700 75 205 3.0 4.0 0.00 0.00 0.00 80 1010.8
20260508233157 75 234 1.0 4.0 0.00 0.00 0.00 80 1010.6
20260508232654 76 214 4.0 7.0 0.00 0.00 0.00 79 1010.9
20260508232150 76 168 1.0 3.0 0.00 0.00 0.00 79 1010.8
20260508231649 76 177 4.0 6.0 0.00 0.00 0.00 78 1010.8
20260508231145 75 233 0.0 4.0 0.00 0.00 0.00 79 1010.9
20260508230642 75 146 3.0 8.0 0.00 0.00 0.00 79 1011.0
20260508230138 76 267 2.0 4.0 0.00 0.00 0.00 79 1011.0
20260508225636 76 153 2.0 3.0 0.00 0.00 0.00 78 1011.1
20260508225132 76 81 2.0 7.0 0.00 0.00 0.00 77 1011.1
20260508224630 76 120 2.0 2.0 0.00 0.00 0.00 77 1011.1
20260508224128 76 70 2.0 4.0 0.00 0.00 0.00 77 1011.2
20260508223625 76 183 1.0 4.0 0.00 0.00 0.00 77 1011.2
20260508223122 76 201 2.0 3.0 0.00 0.00 0.00 77 1011.0
20260508222620 76 229 1.0 6.0 0.00 0.00 0.00 77 1011.1
20260508222117 77 205 3.0 4.0 0.00 0.00 0.00 76 1011.3
20260508221613 76 221 2.0 6.0 0.00 0.00 0.00 77 1011.2
20260508221108 76 241 0.0 3.0 0.00 0.00 0.00 77 1011.3
20260508220605 76 80 3.0 6.0 0.00 0.00 0.00 77 1011.5
20260508215559 75 169 2.0 4.0 0.00 0.00 0.00 77 1011.6
20260508215055 75 234 2.0 6.0 0.00 0.00 0.00 78 1011.9
20260508214553 76 174 2.0 4.0 0.00 0.00 0.00 77 1011.8
20260508214049 76 179 1.0 6.0 0.00 0.00 0.00 77 1011.8
20260508213546 75 192 2.0 4.0 0.00 0.00 0.00 77 1011.8
20260508213042 74 215 0.0 2.0 0.00 0.00 0.00 79 1012.0
20260508212539 74 60 2.0 3.0 0.00 0.00 0.00 78 1012.1
20260508212035 74 184 2.0 6.0 0.00 0.00 0.00 77 1012.3
20260508211531 73 226 1.0 3.0 0.00 0.00 0.00 79 1012.4
20260508211027 73 181 2.0 3.0 0.00 0.00 0.00 79 1012.5
20260508210524 73 206 0.0 2.0 0.00 0.00 0.00 79 1012.5
20260508210022 73 244 0.0 1.0 0.00 0.00 0.00 79 1012.7
20260508205518 73 264 0.0 0.0 0.00 0.00 0.00 79 1012.8
20260508205014 73 83 2.0 4.0 0.00 0.00 0.00 79 1012.9
20260508204512 73 209 2.0 3.0 0.00 0.00 0.00 79 1012.8
20260508204007 74 210 3.0 4.0 0.00 0.00 0.00 77 1012.8
20260508203503 75 281 0.0 3.0 0.00 0.00 0.00 76 1012.8
20260508202959 75 228 3.0 3.0 0.00 0.00 0.00 75 1012.9
20260508202456 74 222 0.0 2.0 0.00 0.00 0.00 77 1013.0
20260508201953 74 216 4.0 4.0 0.00 0.00 0.00 76 1013.0
20260508201450 73 122 1.0 2.0 0.00 0.00 0.00 77 1013.0
20260508200947 74 102 1.0 2.0 0.00 0.00 0.00 76 1013.1
20260508200444 73 204 2.0 3.0 0.00 0.00 0.00 77 1013.1
20260508195938 73 178 1.0 3.0 0.00 0.00 0.00 76 1013.1
20260508195436 73 155 1.0 3.0 0.00 0.00 0.00 76 1013.2
20260508194932 72 201 1.0 4.0 0.00 0.00 0.00 78 1013.1
20260508194429 72 209 4.0 4.0 0.00 0.00 0.00 77 1013.3
20260508193926 72 209 0.0 3.0 0.00 0.00 0.00 78 1013.5
20260508193424 73 83 6.0 7.0 0.00 0.00 0.00 74 1013.4
20260508192919 72 246 0.0 1.0 0.00 0.00 0.00 77 1013.4
20260508192417 71 230 0.0 3.0 0.00 0.00 0.00 79 1013.4
20260508191914 71 117 4.0 6.0 0.00 0.00 0.00 79 1013.7
20260508191411 71 105 2.0 3.0 0.00 0.00 0.00 77 1013.7
20260508190908 71 205 1.0 4.0 0.00 0.00 0.00 78 1013.7
20260508190405 70 68 2.0 6.0 0.00 0.00 0.00 80 1013.9
20260508185901 71 84 2.0 4.0 0.00 0.00 0.00 78 1013.8
20260508185359 71 217 1.0 3.0 0.00 0.00 0.00 78 1013.8
20260508184855 70 137 0.0 1.0 0.00 0.00 0.00 81 1013.9
20260508184353 70 219 0.0 1.0 0.00 0.00 0.00 81 1014.1
20260508183849 69 245 0.0 1.0 0.00 0.00 0.00 81 1014.2
20260508183346 69 105 2.0 2.0 0.00 0.00 0.00 81 1014.2
20260508182842 69 179 0.0 1.0 0.00 0.00 0.00 83 1014.3
20260508182339 69 167 1.0 1.0 0.00 0.00 0.00 82 1014.3
20260508181834 68 137 0.0 2.0 0.00 0.00 0.00 83 1014.6
20260508181331 68 71 1.0 3.0 0.00 0.00 0.00 82 1014.5
20260508180828 68 68 1.0 2.0 0.00 0.00 0.00 83 1014.6
20260508180325 68 68 2.0 3.0 0.00 0.00 0.00 82 1014.9
20260508175821 68 36 1.0 2.0 0.00 0.00 0.00 82 1014.9
20260508175318 68 93 0.0 2.0 0.00 0.00 0.00 81 1014.9
20260508174816 68 39 1.0 1.0 0.00 0.00 0.00 81 1015.0
20260508174313 68 237 0.0 0.0 0.00 0.00 0.00 81 1015.1
20260508173809 68 85 1.0 1.0 0.00 0.00 0.00 81 1015.1
20260508173307 68 101 0.0 1.0 0.00 0.00 0.00 80 1015.4
20260508172802 68 264 0.0 0.0 0.00 0.00 0.00 81 1015.3
20260508172300 67 88 2.0 2.0 0.00 0.00 0.00 81 1015.6
20260508171755 67 193 1.0 2.0 0.00 0.00 0.00 81 1015.5
20260508171252 67 188 3.0 3.0 0.00 0.00 0.00 81 1015.7
20260508170749 68 233 3.0 3.0 0.00 0.00 0.00 80 1015.7
20260508170247 68 215 1.0 3.0 0.00 0.00 0.00 80 1015.8
20260508165744 67 220 0.0 1.0 0.00 0.00 0.00 81 1015.7
20260508165241 67 267 0.0 2.0 0.00 0.00 0.00 81 1015.7
20260508164737 67 13 2.0 4.0 0.00 0.00 0.00 80 1015.7
20260508164234 68 283 0.0 1.0 0.00 0.00 0.00 80 1015.9
20260508163732 67 221 0.0 1.0 0.00 0.00 0.00 81 1015.9
20260508163229 67 86 1.0 1.0 0.00 0.00 0.00 80 1015.8
20260508162725 68 191 1.0 2.0 0.00 0.00 0.00 79 1015.9
20260508162222 67 224 1.0 3.0 0.00 0.00 0.00 80 1015.8
20260508161719 68 14 0.0 3.0 0.00 0.00 0.00 79 1016.0
20260508161216 68 108 2.0 4.0 0.00 0.00 0.00 77 1015.8
20260508160714 67 233 0.0 0.0 0.00 0.00 0.00 79 1015.8
20260508160212 67 85 2.0 6.0 0.00 0.00 0.00 78 1015.7
20260508155708 67 48 2.0 3.0 0.00 0.00 0.00 78 1015.9
20260508155205 67 48 2.0 6.0 0.00 0.00 0.00 78 1016.0
20260508154703 67 29 0.0 2.0 0.00 0.00 0.00 78 1016.0
20260508154159 67 86 3.0 4.0 0.00 0.00 0.00 78 1016.0
20260508153656 66 71 1.0 2.0 0.00 0.00 0.00 78 1015.9
20260508153153 66 251 0.0 2.0 0.00 0.00 0.00 77 1015.9
20260508152650 66 102 1.0 3.0 0.00 0.00 0.00 78 1016.0
20260508152145 66 71 2.0 3.0 0.00 0.00 0.00 78 1015.8
20260508151642 65 239 0.0 1.0 0.00 0.00 0.00 80 1016.0
20260508151139 65 0 1.0 2.0 0.00 0.00 0.00 80 1016.1
20260508150636 65 41 1.0 2.0 0.00 0.00 0.00 80 1016.0
20260508150132 65 31 1.0 2.0 0.00 0.00 0.00 80 1016.3
20260508145628 65 325 2.0 3.0 0.00 0.00 0.00 80 1016.1
20260508145125 65 4 2.0 3.0 0.00 0.00 0.00 79 1016.4
20260508144623 65 330 2.0 2.0 0.00 0.00 0.00 79 1016.2
20260508144120 64 298 2.0 2.0 0.00 0.00 0.00 81 1016.0
20260508143617 64 359 1.0 2.0 0.00 0.00 0.00 80 1016.1
20260508143114 64 343 2.0 3.0 0.00 0.00 0.00 80 1016.3
20260508142610 65 338 2.0 3.0 0.00 0.00 0.00 79 1016.3
20260508142107 65 343 0.0 1.0 0.00 0.00 0.00 79 1016.5
20260508141604 65 95 1.0 1.0 0.00 0.00 0.00 79 1016.6
20260508141101 65 80 1.0 2.0 0.00 0.00 0.00 79 1016.4
20260508140558 65 62 1.0 3.0 0.00 0.00 0.00 78 1016.5
20260508140055 65 259 0.0 1.0 0.00 0.00 0.00 78 1016.4
20260508135550 65 210 0.0 2.0 0.00 0.00 0.00 78 1016.4
20260508135047 64 303 0.0 1.0 0.00 0.00 0.00 78 1016.3
20260508134544 64 279 0.0 1.0 0.00 0.00 0.00 79 1016.4
20260508134041 64 326 0.0 0.0 0.00 0.00 0.00 80 1016.4
20260508133537 63 35 1.0 1.0 0.00 0.00 0.00 80 1016.6
20260508133035 63 145 0.0 1.0 0.00 0.00 0.00 80 1016.4
20260508132533 63 198 0.0 1.0 0.00 0.00 0.00 82 1016.3
20260508132029 63 222 0.0 2.0 0.00 0.00 0.00 82 1016.4
20260508131524 62 219 2.0 3.0 0.00 0.00 0.00 81 1016.5
20260508131021 63 203 1.0 2.0 0.00 0.00 0.00 81 1016.7
20260508130519 63 219 1.0 2.0 0.00 0.00 0.00 81 1016.6
20260508130015 63 236 0.0 1.0 0.00 0.00 0.00 81 1016.3
20260508125511 63 209 1.0 2.0 0.00 0.00 0.00 81 1016.2
20260508125009 63 166 0.0 1.0 0.00 0.00 0.00 81 1016.1
20260508124506 62 290 0.0 1.0 0.00 0.00 0.00 83 1016.1
20260508124003 62 201 0.0 0.0 0.00 0.00 0.00 86 1015.9
20260508123502 61 202 0.0 1.0 0.00 0.00 0.00 86 1016.1
20260508122958 61 234 0.0 0.0 0.00 0.00 0.00 86 1016.0
20260508122455 61 234 0.0 1.0 0.00 0.00 0.00 86 1016.0
20260508121952 61 264 0.0 0.0 0.00 0.00 0.00 85 1015.9
20260508121450 61 264 0.0 0.0 0.00 0.00 0.00 85 1015.9
20260508120948 60 308 1.0 2.0 0.00 0.00 0.00 85 1016.1
20260508120445 60 274 1.0 1.0 0.00 0.00 0.00 85 1016.2
20260508115943 60 228 0.0 1.0 0.00 0.00 0.00 85 1016.3
20260508115441 60 217 1.0 1.0 0.00 0.00 0.00 85 1016.1
20260508114937 60 260 0.0 0.0 0.00 0.00 0.00 84 1016.3
20260508114434 60 277 0.0 0.0 0.00 0.00 0.00 84 1016.2
20260508113930 60 208 0.0 2.0 0.00 0.00 0.00 84 1016.2
20260508113428 61 185 0.0 1.0 0.00 0.00 0.00 84 1016.2
20260508112925 61 196 2.0 4.0 0.00 0.00 0.00 84 1016.2
20260508112422 61 193 2.0 2.0 0.00 0.00 0.00 84 1016.3
20260508111919 61 203 0.0 3.0 0.00 0.00 0.00 84 1016.5
20260508111416 60 205 1.0 2.0 0.00 0.00 0.00 85 1016.4
20260508110913 60 214 2.0 2.0 0.00 0.00 0.00 85 1016.3
20260508110411 60 202 0.0 3.0 0.00 0.00 0.00 86 1016.2
20260508105910 60 200 1.0 2.0 0.00 0.00 0.00 87 1016.2
20260508105406 60 189 1.0 2.0 0.00 0.00 0.00 88 1016.1
20260508104904 60 207 2.0 2.0 0.00 0.00 0.00 88 1016.5
20260508104401 60 207 0.0 1.0 0.00 0.00 0.00 87 1016.3
20260508103858 60 226 0.0 1.0 0.00 0.00 0.00 87 1016.2
20260508103355 60 243 0.0 2.0 0.00 0.00 0.00 88 1016.4
20260508102852 60 220 0.0 0.0 0.00 0.00 0.00 88 1016.5
20260508102350 60 257 0.0 0.0 0.00 0.00 0.00 88 1016.9
20260508101847 60 257 0.0 0.0 0.00 0.00 0.00 88 1017.1
20260508101344 60 308 0.0 0.0 0.00 0.00 0.00 88 1017.2
20260508100842 60 279 0.0 0.0 0.00 0.00 0.00 88 1017.4
20260508100341 60 279 0.0 0.0 0.00 0.00 0.00 88 1017.5
20260508095836 60 280 0.0 0.0 0.00 0.00 0.00 87 1017.7
20260508095334 60 280 0.0 1.0 0.00 0.00 0.00 87 1017.5
20260508094831 60 279 1.0 1.0 0.00 0.00 0.00 88 1017.6
20260508094327 60 279 0.0 1.0 0.00 0.00 0.00 88 1017.4
20260508093824 60 281 1.0 1.0 0.00 0.00 0.00 88 1017.4
20260508093322 60 283 1.0 1.0 0.00 0.00 0.00 89 1017.5
20260508092819 59 283 0.0 1.0 0.00 0.00 0.00 90 1017.2
20260508092317 59 288 1.0 1.0 0.00 0.00 0.00 90 1017.4
20260508091815 59 286 0.0 1.0 0.00 0.00 0.00 91 1017.2
20260508091311 59 340 2.0 3.0 0.00 0.00 0.00 91 1017.2
20260508090809 58 284 0.0 1.0 0.00 0.00 0.00 92 1017.1
20260508090307 58 320 2.0 2.0 0.00 0.00 0.00 92 1017.1
20260508085803 58 288 1.0 2.0 0.00 0.00 0.00 92 1016.9
20260508085300 58 327 1.0 2.0 0.00 0.00 0.00 93 1016.7
20260508084755 58 351 2.0 2.0 0.00 0.00 0.00 93 1016.4
20260508084253 58 311 1.0 1.0 0.00 0.00 0.00 94 1016.5
20260508083751 58 319 1.0 2.0 0.00 0.00 0.00 94 1016.4
20260508083248 58 295 0.0 1.0 0.00 0.00 0.00 94 1016.3
20260508082748 58 349 1.0 2.0 0.00 0.00 0.00 94 1016.4
20260508082246 58 321 1.0 1.0 0.00 0.00 0.00 95 1016.5
20260508081743 57 294 1.0 1.0 0.00 0.00 0.00 94 1016.8
20260508081239 57 257 0.0 1.0 0.00 0.00 0.00 94 1016.8
20260508080737 57 233 0.0 0.0 0.00 0.00 0.00 94 1016.6
20260508080235 57 233 0.0 0.0 0.00 0.00 0.00 94 1016.7
20260508075731 57 233 0.0 0.0 0.00 0.00 0.00 94 1016.9
20260508075228 58 233 0.0 0.0 0.00 0.00 0.00 94 1017.1
20260508074726 58 233 0.0 0.0 0.00 0.00 0.00 94 1017.2
20260508074223 58 233 0.0 0.0 0.00 0.00 0.00 94 1017.0
20260508073719 58 234 0.0 0.0 0.00 0.00 0.00 94 1017.3
20260508073218 58 220 0.0 0.0 0.00 0.00 0.00 94 1017.3
20260508072713 58 220 0.0 1.0 0.00 0.00 0.00 94 1017.3
20260508072210 58 255 0.0 1.0 0.00 0.00 0.00 94 1017.2
20260508071708 58 247 0.0 0.0 0.00 0.00 0.00 93 1017.1
20260508071206 58 247 0.0 0.0 0.00 0.00 0.00 93 1016.9
20260508070703 58 247 0.0 0.0 0.00 0.00 0.00 93 1017.3
20260508070202 58 247 0.0 0.0 0.00 0.00 0.00 93 1017.3
20260508065658 58 247 0.0 0.0 0.00 0.00 0.00 92 1017.4
20260508065156 58 247 0.0 0.0 0.00 0.00 0.00 92 1017.2
20260508064654 58 247 0.0 0.0 0.00 0.00 0.00 92 1017.3
20260508064152 58 246 0.0 0.0 0.00 0.00 0.00 92 1017.4
20260508063649 59 265 0.0 1.0 0.00 0.00 0.00 92 1017.1
20260508063147 59 262 0.0 1.0 0.00 0.00 0.00 92 1017.3
20260508062644 59 260 0.0 0.0 0.00 0.00 0.00 92 1017.5
20260508062140 59 223 0.0 0.0 0.00 0.00 0.00 91 1017.4
20260508061638 59 239 0.0 0.0 0.00 0.00 0.00 91 1017.3
20260508061135 59 265 0.0 0.0 0.00 0.00 0.00 91 1017.1
20260508060632 59 265 0.0 0.0 0.00 0.00 0.00 91 1017.3
20260508060129 59 265 0.0 0.0 0.00 0.00 0.00 91 1017.2
20260508055624 59 219 0.0 0.0 0.00 0.00 0.00 90 1017.3
20260508055121 59 218 0.0 0.0 0.00 0.00 0.00 90 1017.3
20260508054618 60 218 0.0 0.0 0.00 0.00 0.00 89 1017.3
20260508054116 60 217 0.0 0.0 0.00 0.00 0.00 89 1017.3
20260508053612 60 301 0.0 0.0 0.00 0.00 0.00 90 1017.3
20260508053110 60 301 1.0 1.0 0.00 0.00 0.00 90 1017.7
20260508052607 60 301 0.0 1.0 0.00 0.00 0.00 90 1017.7
20260508052105 60 301 0.0 0.0 0.00 0.00 0.00 90 1017.8
20260508051600 60 305 1.0 2.0 0.00 0.00 0.00 90 1017.9
20260508051056 60 303 0.0 1.0 0.00 0.00 0.00 91 1018.0
20260508050552 60 302 1.0 1.0 0.00 0.00 0.00 91 1017.9
20260508050050 60 303 0.0 0.0 0.00 0.00 0.00 91 1018.0
20260508045546 60 304 0.0 1.0 0.00 0.00 0.00 91 1017.8
20260508045044 60 324 2.0 2.0 0.00 0.00 0.00 92 1017.6
20260508044541 60 311 0.0 0.0 0.00 0.00 0.00 92 1017.6
20260508044036 59 7 1.0 2.0 0.00 0.00 0.00 92 1017.8
20260508043533 59 297 0.0 1.0 0.00 0.00 0.00 92 1017.8
20260508043031 59 297 0.0 0.0 0.00 0.00 0.00 92 1018.0
20260508042527 59 297 0.0 0.0 0.00 0.00 0.00 91 1017.7
20260508042025 60 297 0.0 0.0 0.00 0.00 0.00 91 1017.9
20260508041521 60 297 0.0 0.0 0.00 0.00 0.00 91 1017.9
20260508041018 60 297 0.0 0.0 0.00 0.00 0.00 91 1017.8
20260508040515 60 297 0.0 0.0 0.00 0.00 0.00 90 1018.0
20260508040012 60 297 0.0 0.0 0.00 0.00 0.00 90 1018.0
20260508035509 60 297 0.0 0.0 0.00 0.00 0.00 90 1017.9
20260508035006 60 297 0.0 0.0 0.00 0.00 0.00 90 1017.8